This demonstration page uses our WeatherBlox Daily Observations layout. Learn more.

Left ArrowRight Arrow

36.19886, -115.1175

Hourly Observations for December 10, 2021

Temp ( °F °C ) Dew Point ( °F °C ) Humidity (%) Winds ( mph kmh ) Pressure ( in mb ) Visibility ( mi km ) Precip ( " mm )
12:53 am 00:53 Clear 50 10 31 -0.6 48 48 NNW 15 24 29.91 1013 10 16 0.00 0.00
1:53 am 01:53 Clear 50 10 29 -1.7 44 44 NW 20 31 29.93 1014 10 16 0.00 0.00
2:53 am 02:53 Clear 49 9.4 27 -2.8 43 43 NW 17 28 29.95 1014 10 16 0.00 0.00
3:53 am 03:53 Clear 47 8.3 27 -2.8 46 46 NW 13 20 29.98 1015 10 16 0.00 0.00
4:53 am 04:53 Clear 48 8.9 24 -4.4 39 39 NNW 10 17 30.01 1016 10 16 0.00 0.00
5:53 am 05:53 Clear 43 6.1 26 -3.3 51 51 N 7 11 30.06 1018 10 16 0.00 0.00
6:53 am 06:53 Sunny 43 6.1 25 -3.9 49 49 NNE 8 13 30.10 1019 10 16 0.00 0.00
7:53 am 07:53 Sunny 45 7.2 23 -5 42 42 N 5 7 30.14 1021 10 16 0.00 0.00
8:53 am 08:53 Sunny 48 8.9 20 -6.7 33 33 NNW 14 22 30.18 1022 10 16 0.00 0.00
9:53 am 09:53 Sunny 50 10 19 -7.2 29 29 N 20 31 30.21 1023 10 16 0.00 0.00
10:53 am 10:53 Sunny 52 11.1 17 -8.3 25 25 N 14 22 30.21 1023 10 16 0.00 0.00
11:53 am 11:53 Sunny 53 11.7 20 -6.7 27 27 ENE 10 17 30.19 1022 10 16 0.00 0.00
12:53 pm 12:53 Sunny 54 12.2 17 -8.3 23 23 undefined N/A 30.19 1022 10 16 0.00 0.00
1:53 pm 13:53 Sunny 54 12.2 15 -9.4 21 21 NNW 12 19 30.19 1022 10 16 0.00 0.00
2:53 pm 14:53 Sunny 54 12.2 14 -10 20 20 NNW 12 19 30.20 1023 10 16 0.00 0.00
3:53 pm 15:53 Sunny 53 11.7 14 -10 21 21 ENE 12 19 30.22 1024 10 16 0.00 0.00
4:53 pm 16:53 Clear 50 10 13 -10.6 22 22 NNE 9 15 30.25 1025 10 16 0.00 0.00
5:53 pm 17:53 Clear 49 9.4 16 -8.9 27 27 Calm 30.29 1026 10 16 0.00 0.00
6:53 pm 18:53 Clear 48 8.9 12 -11.1 23 23 ENE 6 9 30.31 1027 10 16 0.00 0.00
7:53 pm 19:53 Clear 47 8.3 8 -13.3 20 20 ENE 5 7 30.32 1027 10 16 0.00 0.00
8:53 pm 20:53 Clear 45 7.2 12 -11.1 26 26 W 3 6 30.34 1027 10 16 0.00 0.00
9:53 pm 21:53 Clear 43 6.1 9 -12.8 25 25 ESE 3 6 30.35 1028 10 16 0.00 0.00
10:53 pm 22:53 Clear 40 4.4 11 -11.7 30 30 SE 6 9 30.36 1028 10 16 0.00 0.00
11:53 pm 23:53 Clear 40 4.4 12 -11.1 32 32 W 5 7 30.36 1028 10 16 0.00 0.00

Powered by AerisWeather